Погода в Ильинском

Россия / Костромская область     58°46′01″N   44°35′13″E
темп.,
°C
ветер,
м/с
пор.,
м/с
влажн.,
%
обл.,
%
осадки,
мм/ч
давл.,
гПа
погр.,
м
28 сентября, вт
вт2800:00+3св279757 0.0 1029222
03:00+1св26965 0.0 1030131
06:000св269610 0.0 1032121
09:00+5св357376 0.0 1032369
12:00+9св245049 0.0 1032836
15:00+10ссв23465 0.0 10321015
18:00+5с23737 0.0 103342
21:00+3с228212 0.0 103340
29 сентября, ср
ср2900:00+2с238843 0.0 103445
03:00+2с229244 0.0 103443
06:00+1с229684 0.0 103441
09:00+5ссз2382100 0.0 1034188
12:00+7сз2476100 0.0 1034310
15:00+8сз2476100 0.0 1033429
18:00+5сз239162 0.0 103347
21:00+6ссз1291100 0.0 103252
30 сентября, чт
чт3000:00+6зсз1192100 0.1 103312
03:00+7зсз1294100 0.1 103244
06:00+7сз2596100 0.0 1032160
09:00+10сз358365 0.0 1032390
12:00+13сз3568100 0.0 1031732
15:00+14сз366348 0.0 1031940
18:00+9сз278437 0.0 1031146
21:00+7ссз27946 0.0 1031143
1 октября, пт
пт100:00+6ссз24968 0.0 103284
03:00+6сз249686 0.0 103278
06:00+6сз269772 0.0 1032120
09:00+10ссз248061 0.0 1032299
12:00+13сз24655 0.0 1031757
15:00+14сз346431 0.0 1031953
18:00+10зсз22885 0.0 103128
21:00+8зсз2294100 0.0 103142
2 октября, сб
сб200:00+8зсз2395100 0.0 103155
03:00+6зсз239666 0.0 103151
06:00+6зсз229610 0.0 103233
09:00+10з237835 0.0 1032293
12:00+13з236254 0.0 1031861
15:00+14зюз335840 0.0 10311071
18:00+9зюз227917 0.0 103118
21:00+7зюз228718 0.0 103226